Simultaneous Nadir Overpasses (SNOs) Predictions

Prediction of SNOs between LANDSAT-8 and NOAA-19 Satellite Orbit:

Table of predicted SNOs for the next 14.0 days since TLE Epoch: 4/22/2016
Index Date (LANDSAT-8) Time (LANDSAT-8) Lat,Lon (LANDSAT-8) SZA (LANDSAT-8 ) Date (NOAA-19) Time (NOAA-19) Lat,Lon (NOAA-19) SZA (NOAA-19 ) Distance(km) Time Diff (sec)
1 04/23/2016 08:47:46 -74.58,-127.71 118.18 04/23/2016 08:46:38 -74.56,-127.73 118.20 2.49 68
2 04/23/2016 09:37:13 74.51, 39.75 61.74 04/23/2016 09:37:34 74.51, 39.67 61.74 2.38 21
3 04/25/2016 14:21:28 74.57, -31.17 61.09 04/25/2016 14:20:40 74.58, -31.22 61.09 1.73 48
4 04/25/2016 15:10:57 -74.50, 136.29 119.00 04/25/2016 15:11:44 -74.51, 136.18 118.99 3.49 47
5 04/27/2016 19:55:12 -74.56, 65.36 119.64 04/27/2016 19:54:50 -74.57, 65.30 119.63 2.00 22
6 04/27/2016 20:44:39 74.48,-127.19 60.27 04/27/2016 20:45:45 74.49,-127.22 60.29 1.84 66
7 04/30/2016 01:28:54 74.53, 161.87 59.65 04/30/2016 01:28:51 74.56, 161.86 59.68 3.20 3
8 05/02/2016 06:13:08 74.64, 91.05 59.10 05/02/2016 06:11:57 74.63, 90.94 59.09 3.26 71
9 05/02/2016 07:02:38 -74.52,-101.61 121.04 05/02/2016 07:03:01 -74.55,-101.60 121.01 3.54 23
10 05/04/2016 11:46:52 -74.62,-172.43 121.57 05/04/2016 11:46:07 -74.62,-172.53 121.57 2.78 45
11 05/04/2016 12:36:19 74.53, -5.01 58.33 05/04/2016 12:37:01 74.51, -4.95 58.32 2.22 42
12 05/06/2016 17:20:33 74.62, -75.85 57.81 05/06/2016 17:20:07 74.59, -75.89 57.78 3.45 26




NCC Satellite Simultaneous Nadir Overpasses (SNOs) Prediction Service
